Hickory, NC

6:01 AM EDT on September 30, 2016 (GMT -0400)
Hickory Regional

Weather History for KHKY - March, 2013

Change the Weather History Date:

Sunday, March 3, 2013

  Actual Average Record
Temperature  
Mean Temperature 34 °F -  
Max Temperature 42 °F 59 °F 83 °F (1976)
Min Temperature 25 °F 37 °F 9 °F (1980)
Degree Days  
Heating Degree Days 32    
Moisture  
Dew Point 15 °F    
Average Humidity 50    
Maximum Humidity 66    
Minimum Humidity 34    
Precipitation  
Precipitation 0.00 in - - ()
Sea Level Pressure  
Sea Level Pressure 29.92 in    
Wind  
Wind Speed 5 mph (NW)    
Max Wind Speed 14 mph    
Max Gust Speed 20 mph    
Visibility 10 miles    
Events      
Averages and records for this station are not official NWS values.
T = Trace of Precipitation, MM = Missing Value Source: NWS Daily Summary

Daily Weather History Graph

Daily Weather History Graph

Search for Another Location

Airport or City:

Trip Planner

Search our weather history database for the weather conditions in past years. The results will help you decide how hot, cold, wet, or windy it might be!

Date:

Astronomy

Mar. 03, 2013 Rise Set
Actual Time 6:52 AM EST 6:22 PM EST
Civil Twilight 6:26 AM EST 6:48 PM EST
Nautical Twilight 5:57 AM EST 7:17 PM EST
Astronomical Twilight 5:27 AM EST 7:47 PM EST
Moon No Moon Rise 10:19 AM EST (3/3)
Length of Visible Light 12h 21m
Length of Day
11h 30m
Waning Gibbous, 64% of the Moon is Illuminated
Mar 3
Waning Gibbous
Mar 4
Last Quarter
Mar 11
New
Mar 19
First Quarter
Mar 27
Full

Hourly Weather History & Observations

Time (EST) Temp. Windchill Dew Point Humidity Pressure Visibility Wind Dir Wind Speed Gust Speed Precip Events Conditions
12:53 AM 30.0 °F 23.2 °F 15.1 °F 54% 29.91 in 10.0 mi North 6.9 mph 16.1 mph N/A   Clear
1:53 AM 27.0 °F 23.0 °F 15.1 °F 61% 29.91 in 10.0 mi North 3.5 mph - N/A   Clear
2:53 AM 26.1 °F 21.9 °F 15.1 °F 63% 29.89 in 10.0 mi North 3.5 mph - N/A   Clear
3:53 AM 27.0 °F - 14.0 °F 58% 29.88 in 10.0 mi Calm Calm - N/A   Clear
4:53 AM 25.0 °F - 15.1 °F 66% 29.89 in 10.0 mi Calm Calm - N/A   Clear
5:53 AM 25.0 °F - 14.0 °F 63% 29.91 in 10.0 mi Calm Calm - N/A   Clear
6:53 AM 25.0 °F - 15.1 °F 66% 29.92 in 10.0 mi Calm Calm - N/A   Clear
7:53 AM 27.0 °F - 17.1 °F 66% 29.93 in 10.0 mi Calm Calm - N/A   Clear
8:53 AM 30.9 °F 25.2 °F 15.1 °F 52% 29.94 in 10.0 mi Variable 5.8 mph - N/A   Clear
9:53 AM 34.0 °F 28.0 °F 14.0 °F 44% 29.94 in 10.0 mi West 6.9 mph - N/A   Clear
10:53 AM 37.0 °F 33.3 °F 15.1 °F 41% 29.93 in 10.0 mi WSW 4.6 mph - N/A   Clear
11:53 AM 39.0 °F 34.8 °F 15.1 °F 38% 29.91 in 10.0 mi NNW 5.8 mph - N/A   Clear
12:53 PM 41.0 °F - 15.1 °F 35% 29.89 in 10.0 mi Calm Calm - N/A   Clear
1:53 PM 42.1 °F 38.4 °F 16.0 °F 35% 29.87 in 10.0 mi NW 5.8 mph - N/A   Partly Cloudy
2:53 PM 42.1 °F 36.1 °F 15.1 °F 34% 29.87 in 10.0 mi WNW 10.4 mph 18.4 mph N/A   Clear
3:53 PM 39.9 °F 32.9 °F 14.0 °F 35% 29.88 in 10.0 mi NW 11.5 mph 19.6 mph N/A   Clear
5:53 PM 36.0 °F 27.1 °F 14.0 °F 41% 29.92 in 10.0 mi NW 13.8 mph - N/A   Clear
6:53 PM 32.0 °F 24.2 °F 14.0 °F 48% 29.95 in 10.0 mi NW 9.2 mph - N/A   Clear
7:53 PM 30.9 °F 24.3 °F 14.0 °F 50% 29.96 in 10.0 mi NW 6.9 mph - N/A   Clear
8:53 PM 30.9 °F 24.3 °F 14.0 °F 50% 29.97 in 10.0 mi NNW 6.9 mph - N/A   Clear
10:53 PM 28.9 °F 22.8 °F 12.9 °F 51% 29.97 in 10.0 mi NW 5.8 mph - N/A   Clear
11:53 PM 28.0 °F 24.2 °F 12.9 °F 53% 29.96 in 10.0 mi NW 3.5 mph - N/A   Clear